COSMOS 1275 DEB

Satellite information

Favourite Embed

Satellite Type and Status

DEBRISIN ORBIT

Key statistics

Satellite COSMOS 1275 DEB at a glance.

Uptime

16263

Days in orbit

Revolutions

≈ 14.2

Per day

Orbit

LEO

Low Earth Orbit

Inclination

82.7

Latest

Satellite identification and parameters

Extended collection of information and parameters for COSMOS 1275 DEB.

Object identification

Identified? True

Debris? True

Object name: COSMOS 1275 DEB

International designator: 1981-053LL

Object number (NORAD): 17641

Object ID (CCSDS): 17641

Country: COMMONWEALTH OF INDEPENDENT STATES (CIS)

Current information (Y/N): Y

RCS size: SMALL

Orbital parameters

Period: 101.271 minutes

Inclination: 82.749 deg

SMA: 7196.957 km

Apoapsis: 855.446 km

Periapsis: 782.197 km

RAAN: 62.3669 deg

Eccentricy: 0.0050889

Argument of periapsis: 230.9625 deg

Mean anomaly: 254.4502 deg

Mean motion: 14.21933998 rev/day

Mean motion (dot): 0.0000618 rev/day2

B* drag term: 0.0027571 1/REarth

Two-line elements (TLE)

Creation date: Dec. 12, 2025, 7:16 a.m.

Reference frame: TEME

Reference center: EARTH

Epoch: Dec. 11, 2025, 11 p.m. UTC

TLE line 0: 0 COSMOS 1275 DEB

TLE line 1: 1 17641U 81053LL 25345.95836983 .00006180 00000-0 27571-2 0 9995

TLE line 2: 2 17641 82.7490 62.3669 0050889 230.9625 254.4502 14.21933998 85262

Live tracking on map

Real-time ground track for satellite COSMOS 1275 DEB.

In-orbit conjunctions

A list of the most updated potential collisions computed for object COSMOS 1275 DEB.

Target Orbit TCA Probability of collision Miss distance Type
CZ-4B DEB SSO 2025-09-30 18:29:27 0.0001731427 58.0 (m) DEBRIS
COSMOS 1275 DEB LEO 2025-04-08 17:22:47 0.0001895443 174.0 (m) DEBRIS
METEOR 1-14 LEO 2024-10-27 08:36:20 0.0002352611 346.0 (m) PAYLOAD

Associated space launch

Navigation satellite providing location information for the Tsiklon-B navigation system

COSMOS 1275 DEB was lifted into orbit during the mission ‘Kosmos-3M | Parus 27’, on board a Kosmos-3M space rocket.

The launch took place on June 4, 1981, 3:41 p.m. from 132/2.

For more information about the launch, click the button.

Launch to space Kosmos-3M | Parus 27
Kosmos-3M | Parus 27

Agency: N/A

Status: Launch Successful

Launch date: June 4, 1981, 3:41 p.m. UTC

Rocket: Kosmos-3M

Launch pad: 132/2

Location: Plesetsk Cosmodrome, Russian Federation

...

Latest news about this satellite

There are no fresh news available about this satellite. Check back as we update our databases every day.


Newsletter sign-up

Weekly statistics, charts and insights to help you stay on top of the space industry.